Location: Maccacari
(45.1333°N, 11.1333°E)
Time: 16:34:59
(UTC+00:00)

SR - Pass Details

Date: 23 June 2021
Orbit: 577 x 878 km, 66.7° (Epoch: 24 July)

Event Time Altitude Azimuth Distance (km) Brightness Sun altitude
Rises 01:12:38 0° 312° (NW) 3,229 ? -16.6°
Reaches altitude 10° 01:16:02 10° 291° (WNW) 2,230 ? -16.3°
Maximum altitude 01:18:53 15° 257° (WSW) 1,833 ? -16.1°
Enters shadow 01:18:54 15° 256° (WSW) 1,833 ? -16.1°
